Danville, VA

11:03 AM EST on February 24, 2017 (GMT -0500)
Danville Regional

Weather History for KDAN - January, 2012

Change the Weather History Date:

Saturday, January 14, 2012

  Actual Average Record
Temperature  
Mean Temperature 32 °F 37 °F  
Max Temperature 41 °F 46 °F 71 °F (2007)
Min Temperature 22 °F 29 °F 9 °F (1962)
Degree Days  
Heating Degree Days 33 28  
Month to date heating degree days 343 387  
Since 1 July heating degree days 1704 1869  
Cooling Degree Days 0 0  
Month to date cooling degree days 0 0  
Year to date cooling degree days 0 0  
Moisture  
Dew Point 18 °F    
Average Humidity 60    
Maximum Humidity 82    
Minimum Humidity 37    
Precipitation  
Precipitation 0.00 in 0.11 in 1.46 in (2013)
Month to date precipitation 1.39 1.55  
Year to date precipitation 1.39 1.55  
Snow  
Snow 0.00 in - - ()
Month to date snowfall 0.0  
Since 1 July snowfall 0.0  
Snow Depth 0.00 in    
Sea Level Pressure  
Sea Level Pressure 30.11 in    
Wind  
Wind Speed 7 mph (WSW)    
Max Wind Speed 17 mph    
Max Gust Speed 22 mph    
Visibility 10 miles    
Events      
T = Trace of Precipitation, MM = Missing Value Source: NWS Daily Summary

Daily Weather History Graph

Daily Weather History Graph

Search for Another Location

Airport or City:

Trip Planner

Search our weather history database for the weather conditions in past years. The results will help you decide how hot, cold, wet, or windy it might be!

Date:

Astronomy

Jan. 14, 2012 Rise Set
Actual Time 7:29 AM EST 5:23 PM EST
Civil Twilight 7:00 AM EST 5:52 PM EST
Nautical Twilight 6:28 AM EST 6:23 PM EST
Astronomical Twilight 5:57 AM EST 6:54 PM EST
Moon 11:30 PM EST (1/14) 10:24 AM EST (1/14)
Length of Visible Light 10h 51m
Length of Day
9h 54m
Waning Gibbous, 69% of the Moon is Illuminated
Jan 14
Waning Gibbous
Jan 16
Last Quarter
Jan 23
New
Jan 30
First Quarter
Feb 7
Full

Hourly Weather History & Observations

Time (EST) Temp. Windchill Dew Point Humidity Pressure Visibility Wind Dir Wind Speed Gust Speed Precip Events Conditions
12:53 AM 27.0 °F 18.0 °F 16.0 °F 63% 30.05 in 10.0 mi WSW 9.2 mph - N/A   Clear
1:53 AM 25.0 °F 19.3 °F 16.0 °F 69% 30.06 in 10.0 mi SW 4.6 mph - N/A   Partly Cloudy
2:53 AM 27.0 °F 21.6 °F 17.1 °F 66% 30.09 in 10.0 mi WSW 4.6 mph - N/A   Overcast
3:53 AM 28.0 °F 22.8 °F 18.0 °F 66% 30.09 in 10.0 mi WSW 4.6 mph - N/A   Overcast
4:53 AM 28.9 °F 23.9 °F 18.0 °F 64% 30.09 in 10.0 mi WSW 4.6 mph - N/A   Overcast
5:53 AM 25.0 °F 20.7 °F 17.1 °F 72% 30.10 in 10.0 mi WSW 3.5 mph - N/A   Partly Cloudy
6:53 AM 23.0 °F 18.4 °F 17.1 °F 78% 30.12 in 10.0 mi WSW 3.5 mph - N/A   Clear
7:53 AM 24.1 °F 18.2 °F 18.0 °F 77% 30.14 in 10.0 mi SSW 4.6 mph - N/A   Clear
8:53 AM 28.9 °F 21.9 °F 18.0 °F 64% 30.16 in 10.0 mi West 6.9 mph - N/A   Clear
9:53 AM 33.8 °F 24.3 °F 17.6 °F 52% 30.18 in 10.0 mi West 13.8 mph - N/A   Clear
10:53 AM 36.0 °F 27.5 °F 18.0 °F 48% 30.17 in 10.0 mi WSW 12.7 mph 17.3 mph N/A   Clear
11:53 AM 37.9 °F 31.5 °F 17.1 °F 43% 30.14 in 10.0 mi West 9.2 mph - N/A   Clear
12:53 PM 39.0 °F 32.3 °F 16.0 °F 39% 30.11 in 10.0 mi WSW 10.4 mph - N/A   Clear
1:53 PM 39.9 °F 32.9 °F 15.1 °F 36% 30.08 in 10.0 mi West 11.5 mph - N/A   Clear
2:53 PM 39.9 °F 32.9 °F 15.1 °F 36% 30.08 in 10.0 mi WSW 11.5 mph - N/A   Clear
3:53 PM 39.0 °F 31.4 °F 15.1 °F 38% 30.09 in 10.0 mi WSW 12.7 mph - N/A   Scattered Clouds
4:53 PM 37.9 °F 32.1 °F 15.1 °F 39% 30.10 in 10.0 mi WSW 8.1 mph - N/A   Clear
5:53 PM 32.0 °F 27.5 °F 16.0 °F 52% 30.10 in 10.0 mi SSW 4.6 mph - N/A   Clear
6:53 PM 28.9 °F 25.2 °F 16.0 °F 58% 30.11 in 10.0 mi SW 3.5 mph - N/A   Clear
7:53 PM 30.9 °F 25.2 °F 16.0 °F 54% 30.12 in 10.0 mi WNW 5.8 mph - N/A   Clear
8:53 PM 32.0 °F 27.5 °F 19.0 °F 59% 30.14 in 10.0 mi West 4.6 mph - N/A   Overcast
9:53 PM 35.1 °F 27.9 °F 26.1 °F 70% 30.16 in 10.0 mi NNW 9.2 mph - N/A   Overcast
10:53 PM 33.8 °F - 28.4 °F 81% 30.15 in 10.0 mi Calm Calm - N/A   Overcast
11:53 PM 33.1 °F - 30.0 °F 89% 30.12 in 10.0 mi Calm Calm - N/A   Overcast